TimeEST,TemperatureF,Dew PointF,Humidity,Sea Level PressureIn,VisibilityMPH,Wind Direction,Wind SpeedMPH,Gust SpeedMPH,PrecipitationIn,Events,Conditions,WindDirDegrees,DateUTC
12:51 AM,-9999,-9999,N/A,29.76,10.0,West,3.5,-,N/A,,Mostly Cloudy,260,2013-01-17 05:51:00
1:51 AM,-9999,-9999,N/A,29.76,10.0,Calm,Calm,-,N/A,,Overcast,0,2013-01-17 06:51:00
2:51 AM,-9999,-9999,N/A,29.76,10.0,SW,12.7,19.6,N/A,,Overcast,220,2013-01-17 07:51:00
3:51 AM,-9999,-9999,N/A,29.77,10.0,Calm,Calm,-,N/A,,Overcast,0,2013-01-17 08:51:00
4:07 AM,-9999,-9999,N/A,29.77,10.0,Variable,5.8,-,N/A,,Overcast,0,2013-01-17 09:07:00
4:18 AM,-9999,-9999,N/A,29.76,10.0,WSW,5.8,-,N/A,,Overcast,250,2013-01-17 09:18:00
4:51 AM,-9999,-9999,N/A,29.76,10.0,WSW,4.6,-,N/A,,Mostly Cloudy,250,2013-01-17 09:51:00
5:51 AM,-9999,-9999,N/A,29.78,10.0,SW,4.6,-,N/A,,Overcast,230,2013-01-17 10:51:00
6:16 AM,-9999,-9999,N/A,29.80,10.0,West,4.6,-,N/A,,Overcast,260,2013-01-17 11:16:00
6:24 AM,-9999,-9999,N/A,29.80,10.0,Variable,5.8,-,N/A,,Overcast,0,2013-01-17 11:24:00
6:51 AM,-9999,-9999,N/A,29.80,10.0,WSW,8.1,-,N/A,,Overcast,250,2013-01-17 11:51:00
7:51 AM,-9999,-9999,N/A,29.83,10.0,West,8.1,-,N/A,,Overcast,280,2013-01-17 12:51:00
8:51 AM,-9999,-9999,N/A,29.86,10.0,West,5.8,-,N/A,,Overcast,270,2013-01-17 13:51:00
9:19 AM,-9999,-9999,N/A,29.88,0.8,WNW,21.9,32.2,0.00,,Unknown,300,2013-01-17 14:19:00
9:34 AM,-9999,-9999,N/A,29.91,0.5,NW,16.1,29.9,0.00,,Unknown,310,2013-01-17 14:34:00
9:44 AM,-9999,-9999,N/A,29.92,0.2,NW,16.1,31.1,0.00,,Unknown,310,2013-01-17 14:44:00
9:51 AM,-9999,-9999,N/A,29.92,0.5,WNW,13.8,23.0,0.00,,Unknown,300,2013-01-17 14:51:00
9:56 AM,-9999,-9999,N/A,29.93,1.0,NW,13.8,21.9,0.00,,Unknown,310,2013-01-17 14:56:00
9:59 AM,-9999,-9999,N/A,29.94,1.5,NW,10.4,21.9,0.00,,Unknown,310,2013-01-17 14:59:00
10:05 AM,-9999,-9999,N/A,29.95,2.5,NW,11.5,20.7,0.00,,Unknown,310,2013-01-17 15:05:00
10:12 AM,-9999,-9999,N/A,29.94,6.0,NW,12.7,20.7,0.00,,Unknown,320,2013-01-17 15:12:00
10:51 AM,24.1,18.0,77,29.97,3.0,NW,15.0,21.9,0.00,Snow,Light Snow,320,2013-01-17 15:51:00
11:07 AM,21.2,17.6,86,29.98,3.0,NW,10.4,21.9,0.00,Snow,Light Snow,310,2013-01-17 16:07:00
11:51 AM,19.9,14.0,78,29.99,10.0,WNW,12.7,21.9,0.00,,Overcast,300,2013-01-17 16:51:00
12:51 PM,17.1,7.0,65,30.01,10.0,NW,12.7,18.4,N/A,,Mostly Cloudy,320,2013-01-17 17:51:00
1:51 PM,16.0,-0.0,49,30.03,10.0,WNW,10.4,19.6,N/A,,Clear,300,2013-01-17 18:51:00
2:51 PM,15.1,-2.0,47,30.05,10.0,WNW,5.8,-,N/A,,Clear,300,2013-01-17 19:51:00
3:51 PM,12.9,-2.0,51,30.06,10.0,NNW,8.1,-,N/A,,Clear,340,2013-01-17 20:51:00
4:51 PM,10.9,-2.9,54,30.07,10.0,NW,11.5,-,N/A,,Clear,310,2013-01-17 21:51:00
5:51 PM,9.0,-2.0,61,30.10,10.0,Calm,Calm,-,N/A,,Clear,0,2013-01-17 22:51:00
6:51 PM,10.0,-2.9,56,30.11,10.0,NNE,3.5,-,N/A,,Clear,20,2013-01-17 23:51:00
7:51 PM,8.6,-2.2,62,30.12,10.0,East,3.5,-,N/A,,Clear,80,2013-01-18 00:51:00
8:51 PM,6.8,-4.0,61,30.11,10.0,ENE,3.5,-,N/A,,Clear,60,2013-01-18 01:51:00
9:51 PM,6.1,-6.0,58,30.11,10.0,NE,3.5,-,N/A,,Clear,40,2013-01-18 02:51:00
10:51 PM,5.0,-5.1,63,30.19,10.0,NE,3.5,-,N/A,,Clear,50,2013-01-18 03:51:00
11:51 PM,3.9,-4.0,70,30.19,10.0,NE,3.5,-,N/A,,Clear,50,2013-01-18 04:51:00